Regional Weather Roundup
Issued by NWS

Home | Current Version | Previous Version | Text Only | Print | Product List | Glossary Off
Versions: 1 2 3 4 5 6 7 8 9 10 11 12 13 14 15 16 17 18 19 20 21 22 23 24 25 26 27 28 29 30 31 32 33 34 35 36 37 38 39 40 41 42 43 44 45 46 47 48 49 50

000
ASUS43 KFSD 290610
RWRSD

WEATHER ROUNDUP FOR SOUTH DAKOTA
NATIONAL WEATHER SERVICE SIOUX FALLS SD
100 AM CDT FRI MAY 29 2015

NOTE: "FAIR" INDICATES FEW OR NO CLOUDS BELOW 12,000 FEET WITH NO
SIGNIFICANT WEATHER AND/OR OBSTRUCTIONS TO VISIBILITY.


SDZ001>005-009-010-012>017-290700-
NORTHWEST AND NORTH CENTRAL SOUTH DAKOTA

CITY           SKY/WX    TMP DP  RH WIND       PRES   REMARKS
BUFFALO          N/A     55  53  93 NW9       30.00R
FAITH            N/A     58  53  84 N12       29.95F
MOBRIDGE       CLOUDY    65  61  87 NE14      29.87R
$$

SDZ012>016-024>037-041>051-057-063-072>074-290700-
SOUTHWEST AND SOUTH CENTRAL SOUTH DAKOTA

CITY           SKY/WX    TMP DP  RH WIND       PRES   REMARKS
RAPID CTY ARPT CLOUDY    58  51  78 N14       30.00S
PIERRE         CLOUDY    59  56  89 W9        29.87F
CUSTER         CLOUDY    52  44  74 NW5       30.09S
ELLSWORTH AFB  DRIZZLE   59  52  77 N21       30.00R
PHILIP         CLOUDY    59  56  89 W10       29.94R
PINE RIDGE     CLOUDY    54  51  90 W3        30.02R
WINNER         FAIR      60  55  83 NW5       29.90R
$$

SDZ004>011-016>023-039-040-290700-
NORTHEAST SOUTH DAKOTA

CITY           SKY/WX    TMP DP  RH WIND       PRES   REMARKS
ABERDEEN       CLOUDY    62  60  93 S7        29.85R
WATERTOWN      HVY RAIN  61  59  93 NE9       29.89S FOG
BROOKINGS      MOCLDY    63  57  82 SE10      29.88F
SISSETON         N/A     62  62 100 S15       29.88R
$$

SDZ017-020-022-023-036>040-048>070-290700-
SOUTHEAST SOUTH DAKOTA

CITY           SKY/WX    TMP DP  RH WIND       PRES   REMARKS
SIOUX FALLS    PTCLDY    67  63  87 S13       29.87F
HURON            N/A    N/A N/A N/A MISG      29.83F
CHAMBERLAIN    CLOUDY    60  58  96 W7        29.88R
MITCHELL       CLOUDY    65  60  84 SE5       29.85F THUNDER
YANKTON        CLOUDY    66  63  88 SE9       29.84F
$$

ABBREVIATIONS USED IN REMARKS
   TC - TEMPERATURE IN CELSIUS
  WCI - WIND CHILL INDEX
   HX - HEAT INDEX
  VSB - VISIBILITY




USA.gov is the U.S. government's official web portal to all federal, state and local government web resources and services.